Hourly Data Report for May 11, 2021

MIRAMICHI RCS
NEW BRUNSWICK
Current Station Operator: ECCC - MSC

47°00'34.000" N
65°27'54.000" W
33.00 m
8100989
71744
ACQ

Download Data

Hourly Data (May 2021)
Hourly Data Report for May 11, 2021
TIME
LST
Temp Definition
°C
Dew Point Definition
°C
Rel Hum Definition
%
Precip. Amount Definition
mm

Wind Dir Definition
10's deg

Wind Spd Definition
km/h
Visibility Definition
km
Stn Press Definition
kPa
Hmdx Definition


Wind Chill Definition


Weather Definition


00:00 3.9 2.2 89 LegendMM 3 9   100.71     LegendNANA
01:00 3.7 1.3 85 LegendMM 2 8   100.72     LegendNANA
02:00 2.9 0.9 87 LegendMM 1 7   100.71     LegendNANA
03:00 2.7 0.4 85 LegendMM 1 6   100.66     LegendNANA
04:00 1.2 -0.3 90 LegendMM 2 3   100.68     LegendNANA
05:00 -0.4 -1.2 94 LegendMM 27 3   100.72   -1 LegendNANA
06:00 0.9 -0.2 92 LegendMM 26 2   100.76     LegendNANA
07:00 5.6 1.8 77 LegendMM 5 7   100.76     LegendNANA
08:00 6.8 1.6 69 LegendMM 5 4   100.80     LegendNANA
09:00 9.4 0.6 54 LegendMM 7 6   100.81     LegendNANA
10:00 10.5 1.6 54 LegendMM 8 7   100.77     LegendNANA
11:00 12.0 1.9 50 LegendMM 26 7   100.77     LegendNANA
12:00 12.8 2.0 48 LegendMM 8 10   100.72     LegendNANA
13:00 14.3 1.6 42 LegendMM 9 12   100.64     LegendNANA
14:00 14.4 2.4 44 LegendMM 6 15   100.56     LegendNANA
15:00 15.6 1.7 39 LegendMM 8 18   100.50     LegendNANA
16:00 15.0 0.6 37 LegendMM 13 20   100.48     LegendNANA
17:00 12.2 1.1 47 LegendMM 13 25   100.54     LegendNANA
18:00 10.9 4.5 64 LegendMM 14 21   100.57     LegendNANA
19:00 10.1 5.2 72 LegendMM 13 11   100.57     LegendNANA
20:00 9.2 5.0 75 LegendMM 11 12   100.56     LegendNANA
21:00 8.4 5.8 84 LegendMM 10 9   100.60     LegendNANA
22:00 7.2 5.8 91 LegendMM 8 13   100.61     LegendNANA
23:00 6.0 4.9 92 LegendMM 5 7   100.60     LegendNANA

Notes on Data Quality.

Legend

  • E = Estimated
  • M = Missing
  • NA = Not Available*
  • [empty] = Indicates an unobserved value
Date modified: